KD5HIA Weather Reports


Display with metric or nautical units.
time (UTC)temp
F
wind
direction
speed
MPH
gust
MPH
rain 1hr
in
rain 24hr
in
rain mn
in
humidity
%
barometer
mb
20260903062515 81 135 3.0 4.0 0.00 0.00 0.00 54 1014.2
20260903061516 82 158 3.0 4.0 0.00 0.00 0.00 53 1014.3
20260903060515 83 135 4.0 6.0 0.00 0.00 0.00 51 1014.4
20260903055515 84 135 5.0 8.0 0.00 0.00 0.00 50 1014.5
20260903054515 84 135 7.0 9.0 0.00 0.00 0.00 49 1014.4
20260903053516 84 135 6.0 9.0 0.00 0.00 0.00 49 1014.3
20260903052516 85 135 7.0 11.0 0.00 0.00 0.00 48 1014.3
20260903051515 85 135 7.0 11.0 0.00 0.00 0.00 48 1014.0
20260903050515 85 135 8.0 11.0 0.00 0.00 0.00 47 1014.1
20260903045515 85 135 7.0 11.0 0.00 0.00 0.00 47 1014.0
20260903044515 84 135 5.0 9.0 0.00 0.00 0.00 47 1013.9
20260903043516 84 113 6.0 8.0 0.00 0.00 0.00 47 1013.9
20260903042515 84 135 4.0 7.0 0.00 0.00 0.00 46 1014.0
20260903041516 85 135 4.0 5.0 0.00 0.00 0.00 45 1013.9
20260903040516 86 135 6.0 9.0 0.00 0.00 0.00 44 1014.1
20260903035515 86 113 8.0 11.0 0.00 0.00 0.00 43 1013.8
20260903034515 86 135 8.0 10.0 0.00 0.00 0.00 43 1013.7
20260903033515 86 113 7.0 9.0 0.00 0.00 0.00 42 1013.6
20260903032516 85 135 6.0 9.0 0.00 0.00 0.00 42 1013.3
20260903031515 86 113 5.0 8.0 0.00 0.00 0.00 42 1013.1
20260903030515 86 135 5.0 7.0 0.00 0.00 0.00 42 1012.9
20260903025516 86 113 4.0 7.0 0.00 0.00 0.00 41 1012.8
20260903024515 87 113 4.0 6.0 0.00 0.00 0.00 40 1012.5
20260903023515 88 113 4.0 6.0 0.00 0.00 0.00 40 1012.4
20260903022515 88 135 4.0 7.0 0.00 0.00 0.00 40 1012.4
20260903021516 88 113 5.0 6.0 0.00 0.00 0.00 40 1012.1
20260903020516 89 113 4.0 6.0 0.00 0.00 0.00 39 1012.1
20260903015515 89 113 2.0 4.0 0.00 0.00 0.00 39 1012.0
20260903014515 90 90 1.0 3.0 0.00 0.00 0.00 39 1011.7
20260903013516 90 90 1.0 2.0 0.00 0.00 0.00 38 1011.6
20260903012516 91 0.0 1.0 0.00 0.00 0.00 37 1011.6
20260903011516 92 90 1.0 1.0 0.00 0.00 0.00 36 1011.5
20260903010516 93 90 1.0 1.0 0.00 0.00 0.00 34 1011.4
20260903005516 94 90 1.0 1.0 0.00 0.00 0.00 34 1011.5
20260903004516 95 90 1.0 3.0 0.00 0.00 0.00 34 1011.6
20260903003516 96 90 1.0 2.0 0.00 0.00 0.00 32 1011.7
20260903002515 97 90 1.0 2.0 0.00 0.00 0.00 31 1011.7
20260903001516 98 90 1.0 2.0 0.00 0.00 0.00 31 1011.7
20260903000515 98 90 3.0 9.0 0.00 0.00 0.00 29 1011.7
20260902235516 99 68 4.0 8.0 0.00 0.00 0.00 29 1011.9
20260902234516 99 90 3.0 7.0 0.00 0.00 0.00 29 1011.8
20260902233515 99 90 3.0 9.0 0.00 0.00 0.00 29 1011.9
20260902232519 100 90 4.0 9.0 0.00 0.00 0.00 28 1012.1
20260902231519 100 135 1.0 4.0 0.00 0.00 0.00 27 1012.1
20260902230519 101 113 4.0 8.0 0.00 0.00 0.00 28 1012.2
20260902225516 101 113 3.0 7.0 0.00 0.00 0.00 28 1012.3
20260902224516 101 113 3.0 7.0 0.00 0.00 0.00 28 1012.3
20260902223516 100 135 2.0 3.0 0.00 0.00 0.00 28 1012.3
20260902222516 100 68 3.0 6.0 0.00 0.00 0.00 28 1012.3
20260902221515 101 158 2.0 4.0 0.00 0.00 0.00 28 1012.5
20260902220515 101 45 1.0 5.0 0.00 0.00 0.00 29 1012.5
20260902215515 101 45 1.0 4.0 0.00 0.00 0.00 28 1012.5
20260902214516 100 135 3.0 7.0 0.00 0.00 0.00 29 1012.7
20260902213516 100 180 4.0 7.0 0.00 0.00 0.00 29 1012.8
20260902212516 100 180 4.0 9.0 0.00 0.00 0.00 30 1013.0
20260902211516 101 158 3.0 6.0 0.00 0.00 0.00 30 1013.2
20260902210516 100 135 6.0 11.0 0.00 0.00 0.00 30 1013.3
20260902205516 101 90 4.0 9.0 0.00 0.00 0.00 30 1013.4
20260902204515 101 180 2.0 5.0 0.00 0.00 0.00 31 1013.7
20260902203515 100 135 6.0 10.0 0.00 0.00 0.00 31 1013.8
20260902202515 100 135 8.0 13.0 0.00 0.00 0.00 31 1013.9
20260902201516 100 68 3.0 7.0 0.00 0.00 0.00 31 1014.1
20260902200516 101 68 3.0 8.0 0.00 0.00 0.00 31 1014.2
20260902195516 100 45 3.0 7.0 0.00 0.00 0.00 31 1014.3
20260902194516 100 113 3.0 8.0 0.00 0.00 0.00 31 1014.7
20260902193516 100 68 4.0 9.0 0.00 0.00 0.00 32 1014.7
20260902192516 98 68 5.0 10.0 0.00 0.00 0.00 32 1014.9
20260902191515 97 113 1.0 3.0 0.00 0.00 0.00 33 1015.1
20260902190516 97 45 1.0 3.0 0.00 0.00 0.00 34 1015.3
20260902185515 97 23 1.0 4.0 0.00 0.00 0.00 33 1015.4
20260902184515 100 23 1.0 3.0 0.00 0.00 0.00 31 1015.7
20260902183516 98 248 3.0 6.0 0.00 0.00 0.00 33 1015.7
20260902182515 98 270 3.0 7.0 0.00 0.00 0.00 33 1016.0
20260902181515 96 203 2.0 4.0 0.00 0.00 0.00 36 1016.0
20260902180516 96 113 2.0 5.0 0.00 0.00 0.00 35 1016.1
20260902175516 98 113 4.0 7.0 0.00 0.00 0.00 35 1016.2
20260902174516 97 113 4.0 7.0 0.00 0.00 0.00 37 1016.5
20260902173516 96 113 3.0 8.0 0.00 0.00 0.00 37 1016.7
20260902172515 95 180 4.0 6.0 0.00 0.00 0.00 38 1016.8
20260902171515 95 135 4.0 10.0 0.00 0.00 0.00 38 1017.1
20260902170516 95 203 4.0 8.0 0.00 0.00 0.00 40 1017.2
20260902165516 95 158 5.0 9.0 0.00 0.00 0.00 42 1017.2
20260902164515 94 203 3.0 7.0 0.00 0.00 0.00 45 1017.2
20260902163516 93 180 5.0 9.0 0.00 0.00 0.00 46 1017.3
20260902162516 92 180 4.0 7.0 0.00 0.00 0.00 48 1017.5
20260902161516 92 180 4.0 8.0 0.00 0.00 0.00 48 1017.4
20260902160515 91 225 4.0 9.0 0.00 0.00 0.00 50 1017.6
20260902155516 89 248 3.0 6.0 0.00 0.00 0.00 51 1017.5
20260902154515 89 248 4.0 9.0 0.00 0.00 0.00 54 1017.4
20260902153516 88 203 5.0 9.0 0.00 0.00 0.00 54 1017.4
20260902152515 86 225 5.0 7.0 0.00 0.00 0.00 56 1017.3
20260902151516 86 225 3.0 7.0 0.00 0.00 0.00 57 1017.5
20260902150516 84 203 6.0 12.0 0.00 0.00 0.00 59 1017.3
20260902145516 84 203 4.0 8.0 0.00 0.00 0.00 61 1017.4
20260902144515 83 225 3.0 8.0 0.00 0.00 0.00 62 1017.4
20260902143516 82 225 3.0 7.0 0.00 0.00 0.00 63 1017.3
20260902142515 80 203 3.0 7.0 0.00 0.00 0.00 63 1017.2
20260902141516 80 203 3.0 6.0 0.00 0.00 0.00 65 1017.2
20260902140516 79 225 3.0 7.0 0.00 0.00 0.00 66 1017.2
20260902135515 77 225 1.0 2.0 0.00 0.00 0.00 67 1017.2
20260902134516 76 248 1.0 2.0 0.00 0.00 0.00 67 1017.1
20260902133515 76 0.0 0.0 0.00 0.00 0.00 68 1017.1
20260902132515 76 0.0 2.0 0.00 0.00 0.00 68 1017.0
20260902131516 76 0.0 1.0 0.00 0.00 0.00 68 1017.1
20260902130515 75 270 1.0 2.0 0.00 0.00 0.00 67 1017.0
20260902125515 75 248 1.0 3.0 0.00 0.00 0.00 68 1016.8
20260902124515 74 0.0 1.0 0.00 0.00 0.00 68 1016.9
20260902123516 74 0.0 0.0 0.00 0.00 0.00 67 1016.8
20260902122515 75 135 1.0 2.0 0.00 0.00 0.00 67 1016.9
20260902121516 75 113 1.0 2.0 0.00 0.00 0.00 66 1016.8
20260902120516 74 113 1.0 2.0 0.00 0.00 0.00 68 1016.8
20260902115516 75 0.0 2.0 0.00 0.00 0.00 66 1016.6
20260902114516 76 203 3.0 5.0 0.00 0.00 0.00 65 1016.6
20260902113515 75 135 1.0 4.0 0.00 0.00 0.00 66 1016.6
20260902112516 75 0.0 0.0 0.00 0.00 0.00 65 1016.6
20260902111516 74 0.0 0.0 0.00 0.00 0.00 66 1016.5
20260902110516 74 0.0 0.0 0.00 0.00 0.00 65 1016.6
20260902105516 76 113 1.0 2.0 0.00 0.00 0.00 63 1016.5
20260902104519 76 135 1.0 2.0 0.00 0.00 0.00 63 1016.4
20260902103519 76 0.0 2.0 0.00 0.00 0.00 63 1016.3
20260902102519 76 0.0 1.0 0.00 0.00 0.00 62 1016.4
20260902101516 76 113 1.0 3.0 0.00 0.00 0.00 61 1016.3
20260902100515 76 135 1.0 3.0 0.00 0.00 0.00 63 1016.2
20260902095516 75 0.0 2.0 0.00 0.00 0.00 64 1016.2
20260902094516 76 0.0 2.0 0.00 0.00 0.00 64 1016.2
20260902093516 75 0.0 0.0 0.00 0.00 0.00 66 1016.0
20260902092516 76 0.0 2.0 0.00 0.00 0.00 63 1016.1
20260902091516 77 0.0 2.0 0.00 0.00 0.00 60 1016.1
20260902090516 77 270 1.0 2.0 0.00 0.00 0.00 62 1016.1
20260902085515 76 270 2.0 3.0 0.00 0.00 0.00 61 1015.9
20260902084516 77 270 2.0 4.0 0.00 0.00 0.00 60 1016.2
20260902083516 78 225 2.0 3.0 0.00 0.00 0.00 59 1016.1
20260902082516 78 203 2.0 3.0 0.00 0.00 0.00 58 1016.2
20260902081516 78 225 2.0 3.0 0.00 0.00 0.00 58 1016.2
20260902080516 78 180 2.0 2.0 0.00 0.00 0.00 59 1016.2
20260902075516 78 158 2.0 4.0 0.00 0.00 0.00 59 1016.2
20260902074516 78 180 1.0 2.0 0.00 0.00 0.00 59 1016.1
20260902073516 79 203 2.0 2.0 0.00 0.00 0.00 57 1016.1
20260902072516 79 225 1.0 2.0 0.00 0.00 0.00 57 1016.2
20260902071516 79 180 2.0 3.0 0.00 0.00 0.00 57 1016.3
20260902070516 80 180 2.0 3.0 0.00 0.00 0.00 56 1016.2
20260902065516 80 180 2.0 2.0 0.00 0.00 0.00 55 1016.3
20260902064516 81 180 1.0 2.0 0.00 0.00 0.00 55 1016.3
20260902063516 81 180 2.0 4.0 0.00 0.00 0.00 54 1016.2